Location: Fort Worth, Tx
(32.7431°N, 97.3695°W)
Time: 00:48:51
(UTC-04:00)

A-11 Canister half - Pass Details

Date: 28 February 2024
Orbit: 1525 x 1683 km, 47.3° (Epoch: 24 April)

Event Time Altitude Azimuth Distance (km) Brightness Sun altitude
Rises 20:01:16 0° 221° (SW) 4,838 12.4 -8.3°
Reaches altitude 10° 20:04:26 10° 219° (SW) 3,833 11.7 -8.9°
Maximum altitude 20:14:05 71° 137° (SE) 1,652 9.0 -11.0°
Drops below altitude 10° 20:23:27 10° 56° (NE) 3,726 10.5 -12.9°
Enters shadow 20:23:57 - 56° (NE) 3,885 10.6 -13.0°
